TimeEST,TemperatureF,Dew PointF,Humidity,Sea Level PressureIn,VisibilityMPH,Wind Direction,Wind SpeedMPH,Gust SpeedMPH,PrecipitationIn,Events,Conditions,WindDirDegrees,DateUTC
12:26 AM,24.8,17.6,74,30.16,6.0,NNE,6.9,-,N/A,,Overcast,20,2011-01-16 05:26:00
12:53 AM,24.1,16.0,71,30.19,6.0,Variable,4.6,-,N/A,,Overcast,0,2011-01-16 05:53:00
1:53 AM,24.1,17.1,75,30.21,6.0,Variable,3.5,-,N/A,,Overcast,0,2011-01-16 06:53:00
3:53 AM,23.0,17.1,78,30.21,5.0,North,4.6,-,N/A,,Overcast,360,2011-01-16 08:53:00
4:53 AM,21.9,16.0,78,30.23,5.0,North,5.8,-,N/A,,Overcast,360,2011-01-16 09:53:00
5:53 AM,21.9,16.0,78,30.24,5.0,NNE,5.8,-,N/A,,Overcast,20,2011-01-16 10:53:00
6:53 AM,21.9,16.0,78,30.24,6.0,NNE,6.9,-,N/A,,Overcast,30,2011-01-16 11:53:00
7:53 AM,21.9,15.1,75,30.25,6.0,NNE,4.6,-,N/A,,Overcast,30,2011-01-16 12:53:00
8:53 AM,21.9,15.1,75,30.25,7.0,ENE,5.8,-,N/A,,Overcast,60,2011-01-16 13:53:00
9:53 AM,23.0,15.1,72,30.27,6.0,East,4.6,-,N/A,,Haze,80,2011-01-16 14:53:00
10:53 AM,26.1,16.0,66,30.27,10.0,ENE,6.9,-,N/A,,Clear,70,2011-01-16 15:53:00
11:53 AM,27.0,17.1,66,30.25,10.0,Calm,Calm,-,N/A,,Partly Cloudy,0,2011-01-16 16:53:00
12:53 PM,28.0,17.1,63,30.22,10.0,Calm,Calm,-,N/A,,Clear,0,2011-01-16 17:53:00
1:53 PM,30.0,17.1,59,30.18,10.0,Calm,Calm,-,N/A,,Clear,0,2011-01-16 18:53:00
2:53 PM,30.0,17.1,59,30.18,10.0,Calm,Calm,-,N/A,,Clear,0,2011-01-16 19:53:00
3:53 PM,30.0,18.0,61,30.19,9.0,North,5.8,-,N/A,,Clear,350,2011-01-16 20:53:00
4:53 PM,27.0,18.0,69,30.19,7.0,North,6.9,-,N/A,,Partly Cloudy,360,2011-01-16 21:53:00
5:53 PM,28.0,19.0,69,30.21,6.0,NNE,6.9,-,N/A,,Haze,30,2011-01-16 22:53:00
6:53 PM,28.0,18.0,66,30.19,8.0,East,5.8,-,N/A,,Overcast,80,2011-01-16 23:53:00
8:53 PM,25.0,17.1,72,30.18,9.0,East,3.5,-,N/A,,Overcast,80,2011-01-17 01:53:00
9:53 PM,23.0,16.0,74,30.18,8.0,Calm,Calm,-,N/A,,Clear,0,2011-01-17 02:53:00
10:53 PM,17.1,12.9,84,30.17,5.0,Calm,Calm,-,N/A,,Clear,0,2011-01-17 03:53:00
11:53 PM,16.0,12.9,88,30.17,4.0,Calm,Calm,-,N/A,,Clear,0,2011-01-17 04:53:00